Location: Bukovany
(49.8234°N, 14.6297°E)
Time: 16:32:25
(UTC+00:00)

Cosmos 2016 Rocket - Pass Details

Date: 17 November 2025
Orbit: 946 x 999 km, 83.0° (Epoch: 09 December)

Event Time Altitude Azimuth Distance (km) Brightness Sun altitude
Rises 15:58:56 0° 187° (S) 3,675 7.4 -7.2°
Reaches altitude 10° 16:01:26 10° 188° (S) 2,738 6.8 -7.6°
Maximum altitude 16:07:44 89° 276° (W) 1,002 4.1 -8.5°
Drops below altitude 10° 16:14:09 10° 9° (N) 2,779 6.1 -9.5°
Sets 16:16:42 0° 10° (N) 3,734 6.8 -9.9°
